This is the latest recevied weather packets stored in our database for station/object N5TSS. If no packets are shown the sender has not sent any weather packets the latest 1 day(s).
| Time | Temp. | Humidity | Pressure | Rain* | Wind** | Luminosity | Snow |
|---|---|---|---|---|---|---|---|
| 1777993932 | 24.44° C | 82% | 1010.5 hPa | 0 mm | 2.68 m/s, 170° | - | - |
| 1777993629 | 24.44° C | 83% | 1010.5 hPa | 0 mm | 0.89 m/s, 167° | - | - |
| 1777993326 | 24.44° C | 84% | 1010.5 hPa | 0 mm | 1.34 m/s, 144° | - | - |
| 1777993026 | 23.89° C | 84% | 1010.2 hPa | 0 mm | 0.89 m/s, 136° | - | - |
| 1777992725 | 23.89° C | 84% | 1010.2 hPa | 0 mm | 1.34 m/s, 149° | - | - |
| 1777992422 | 23.89° C | 84% | 1010.5 hPa | 0 mm | 2.24 m/s, 183° | - | - |
| 1777992120 | 23.89° C | 84% | 1010.5 hPa | 0 mm | 1.34 m/s, 146° | - | - |
| 1777991817 | 23.89° C | 84% | 1010.5 hPa | 0 mm | 0.89 m/s, 190° | - | - |
| 1777991514 | 23.89° C | 84% | 1010.5 hPa | 0 mm | 1.34 m/s, 199° | - | - |
| 1777991211 | 23.89° C | 85% | 1010.5 hPa | 0 mm | 2.24 m/s, 188° | - | - |
| 1777990909 | 23.33° C | 85% | 1010.5 hPa | 0 mm | 0.89 m/s, 154° | - | - |
| 1777990606 | 23.33° C | 85% | 1010.5 hPa | 0 mm | 1.79 m/s, 144° | - | - |
| 1777990303 | 23.33° C | 85% | 1010.2 hPa | 0 mm | 2.24 m/s, 172° | - | - |
| 1777989999 | 23.33° C | 86% | 1010.2 hPa | 0 mm | 2.24 m/s, 168° | - | - |
| 1777989696 | 23.33° C | 86% | 1010.5 hPa | 0 mm | 0.45 m/s, 133° | - | - |
| 1777989392 | 22.78° C | 86% | 1010.2 hPa | 0 mm | 0.89 m/s, 58° | - | - |
| 1777989089 | 22.78° C | 86% | 1010.2 hPa | 0 mm | 1.34 m/s, 162° | - | - |
| 1777988785 | 22.78° C | 87% | 1010.2 hPa | 0 mm | 1.79 m/s, 166° | - | - |
| 1777988482 | 22.78° C | 87% | 1010.5 hPa | 0 mm | 1.79 m/s, 201° | - | - |
| 1777988179 | 22.78° C | 87% | 1010.2 hPa | 0 mm | 1.79 m/s, 183° | - | - |
| 1777987875 | 22.78° C | 88% | 1010.2 hPa | 0 mm | 1.34 m/s, 116° | - | - |
| 1777987571 | 22.22° C | 88% | 1010.2 hPa | 0 mm | 2.24 m/s, 191° | - | - |
| 1777987269 | 22.22° C | 88% | 1010.2 hPa | 0 mm | 0.89 m/s, 213° | - | - |
| 1777986966 | 22.22° C | 88% | 1010.5 hPa | 0 mm | 0.89 m/s, 165° | - | - |
| 1777986664 | 22.22° C | 88% | 1010.5 hPa | 0 mm | 1.79 m/s, 147° | - | - |
* Rain latest hour (hover to see other rain measurements)
** Current wind speed in m/s (hover to see current wind gust speed)